Regional Weather Roundup
Issued by NWS Green Bay, WI

Home | Current Version | Previous Version | Graphics & Text | Print | Product List | Glossary Off
Versions: 1 2 3 4 5 6 7 8 9 10 11 12 13 14 15 16 17 18 19 20 21 22 23 24 25 26 27 28 29 30 31 32 33 34 35 36 37 38 39 40 41 42 43 44 45 46 47 48 49 50

000
ASUS43 KGRB 040811
RWRGRB

NORTH-CENTRAL AND NORTHEAST WISCONSIN REGIONAL WEATHER ROUNDUP
NATIONAL WEATHER SERVICE GREEN BAY WI
300 AM CDT SAT JUL 04 2015

WIZ005-009-010>012-018-019-040900-
NORTH CENTRAL WISCONSIN

CITY           SKY/WX    TMP DP  RH WIND       PRES   REMARKS
IRONWOOD       CLEAR     54  52  94 CALM      29.90R
MANITOWISH WTR FOG       53  53 100 CALM      29.94S VSB<1/4
ARBOR VITAE    FOG       57  56  95 CALM      29.93S VSB 3/4
EAGLE RIVER    FOG       52  52 100 CALM      29.94S VSB 1/4
LAND O LAKES     N/A     50  50  99 CALM      29.95R FOG
RHINELANDER    FOG       56  55  97 CALM      29.94S VSB 3/4
PHILLIPS       CLEAR     55  54  99 CALM      29.92S
ANTIGO         MOCLDY    58  57  96 CALM      29.94R
TOMAHAWK       FOG       54  53  97 CALM      29.94S VSB 1/2
MERRILL        FOG       55  55 100 CALM      29.94R VSB 1/2
$$

WIZ013-073-040900-
NORTHEAST WISCONSIN

CITY           SKY/WX    TMP DP  RH WIND       PRES   REMARKS
IRON MOUNTAIN  CLOUDY    60  58  92 W3        29.90S
MARINETTE      PTCLDY    61  55  82 CALM      29.89S
OCONTO         CLOUDY    58  58 100 CALM      29.89S
$$

WIZ017-030-035>037-045-040900-
CENTRAL WISCONSIN

CITY           SKY/WX    TMP DP  RH WIND       PRES   REMARKS
MEDFORD        PTCLDY    56  55  99 S3        29.94S
WAUSAU         CLEAR     61  58  90 CALM      29.92R
MOSINEE        CLEAR     59  55  88 W7        29.94R
MARSHFIELD     MOCLDY    60  55  83 SW3       29.94R
WISC RAPIDS    PTCLDY    58  55  90 CALM      29.95R
STEVENS POINT  CLEAR     55  53  94 CALM      29.94R
WAUPACA        CLEAR     60  59  97 CALM      29.93R
SHAWANO        CLOUDY    64  59  85 CALM      29.91S
CLINTONVILLE   CLOUDY    61  57  88 CALM      29.91S
$$

WIZ038-039-048-051-040900-
FOX VALLEY

CITY           SKY/WX    TMP DP  RH WIND       PRES   REMARKS
NWS GREEN BAY  CLEAR     60  57  89 S3        29.91R
APPLETON       MOCLDY    63  55  77 W8        29.93R
OSHKOSH        PTCLDY    64  57  78 W6        29.92S
FOND DU LAC    PTCLDY    62  57  83 SW7       29.93S
$$

WIZ022-050-052-040900-
EAST CENTRAL WISCONSIN

CITY           SKY/WX    TMP DP  RH WIND       PRES   REMARKS
STURGEON BAY   CLOUDY    61  54  77 W3        29.92S
MANITOWOC      PTCLDY    64  57  78 MISG      29.91S
SHEBOYGAN      CLOUDY    60  55  83 SW5       29.92S
$$

LMZ563-521-522-541>543-040900-
LAKESHORE

STATION/POSITION TIME  TEMP    WIND        PRES    VSBY  WAVE
                       AIR SEA DIR/SP/G                  HT/PER
                 (UTC) (F)     (DEG/KT/KT) (MB)    (MI)  (FT/S)
SHEBOYGAN LKSHOR 0800   63     250/  8/ 10 1013.2F
KEWAUNEE LKSHORE 0700   63     290/  2/  5 1011.9F
NORTHPORT PIER   0700   65     260/  3/  7 1011.9S
N MID LAKE BUOY  0750   49 43  200/  8/ 10 1012.1S         1/ 4
S GREEN BAY BUOY 0700   69 68  220/  8/ 10 1013.6R
SISTER BAY LKSHO 0729   66     290/  9/ 10   N/A
CHAMBERS ISLAND  0700   65     240/  4/  6 1012.2S
MENOMINEE LKSHOR 0700   65     320/  3/  5 1013.0R
$$



USA.gov is the U.S. government's official web portal to all federal, state and local government web resources and services.